COSMOS 2251 DEB, 33942

Orbit data source: Space-Track

COSMOS 2251 DEB, 33942 is space debris in LEO originally from a launch on Wed, 16 Jun 1993 UTC launched from the Plesetsk Missile And Space Complex (PKMTR). The debris from Iridium 33, an American commercial communications satellite, has been tracked extensively since its accidental collision with the defunct Russian satellite Cosmos 2251 in 2009. This event, occurring at high speed in low Earth orbit (LEO), generated thousands of pieces of space debris, significantly increasing the risk of further collisions. The Iridium 33 debris cloud has impacted space traffic management and orbital debris mitigation strategies, making it a subject of ongoing study in space situational awareness.

Loading next visibility...
Identifier
33942, 1993-036EX
Orbit
LEO
Country
Flag of CISCIS
Related business
Manufacturer
Unknown
Mission
Spacecraft
Bus & Motor
Unknown
Mass
Unknown
Launch date (UTC)
1993-06-16 (33 years ago)
Launch vehicle
Unknown
Launch site
Plesetsk Missile And Space Complex (PKMTR)
Object type
Payload
Rocket body
Debris
Shape & HBR
Unknown shape, 0.3 m
Radar Cross Section
Medium (>0.1 m² and <1 m²)

Expand to show TLE details & history
Last TLE update: 10 hours ago

TLE from 10 hours ago
0 COSMOS 2251 DEB
1 33942U 93036EX  26175.32155350  .00000331  00000-0  11720-3 0  9998
2 33942  74.0367 278.2321 0021311 317.2532 104.5994 14.38233553909171
Epoch: 2026-06-24T07:43Z
TLE epoch observation values (Epoch: 2026-06-24T07:43:02.222Z)
Latitude
58.27493°
Longitude
-82.6049°
Altitude
777.689 km
Speed
7.469 km/s
True Right ascension
20h 22m 32s
True Declination
58° 07' 17"
Sunlit
Object was in daylight at epoch
Visualization orbit readout
Latitude
Unknown
Longitude
Unknown
Altitude
Unknown
Speed
Unknown
Apparent Right ascension
Unknown
Apparent Declination
Unknown
Sunlit
N/A
Visualization observer readout
Local Sidereal Time
04:44:56
Azimuth
Unknown
Elevation
Unknown
Doppler factor
Unknown
Orbital elements
Apogee altitude
777.179 km
Perigee altitude
746.746 km
Semi-major axis
7,140.099 km
Eccentricity
0.00213
Inclination
74.0367°
RAAN
278.2321°
Arg. of periapsis
317.2532°
True anomaly
104.83556°
Mean anomaly
104.5994°
Eccentric anomaly
104.7175°
Mean motion
3.59738 °/min
Orbital period
100.07 mins
BSTAR
0.0001172

Documentation

Showing up to 5 results
|